CW4610 Weather Reports


time (UTC)temp
C
wind
direction
speed
KPH
gust
KPH
rain 1hr
cm
rain 24hr
cm
rain mn
cm
humidity
%
barometer
mb
20260503200518 28 0 9.7 16.1 0.00 0.00 0.00 34 1012.2
20260503195532 28 315 6.4 14.5 0.00 0.00 0.00 35 1012.4
20260503194517 28 0 6.4 12.9 0.00 0.00 0.00 33 1012.5
20260503193521 28 225 4.8 9.7 0.00 0.00 0.00 34 1012.5
20260503192519 28 180 4.8 8.0 0.00 0.00 0.00 32 1012.7
20260503191518 27 225 4.8 8.0 0.00 0.00 0.00 32 1012.9
20260503190519 27 225 6.4 8.0 0.00 0.00 0.00 31 1012.9
20260503185518 27 225 4.8 9.7 0.00 0.00 0.00 34 1013.0
20260503184518 26 225 4.8 9.7 0.00 0.00 0.00 39 1013.1
20260503183518 26 225 4.8 8.0 0.00 0.00 0.00 41 1013.2
20260503182539 25 225 3.2 6.4 0.00 0.00 0.00 42 1013.3
20260503181519 25 225 3.2 8.0 0.00 0.00 0.00 43 1013.4
20260503180520 24 315 1.6 4.8 0.00 0.00 0.00 46 1013.4
20260503175520 23 180 3.2 8.0 0.00 0.00 0.00 45 1013.5
20260503174521 23 293 3.2 8.0 0.00 0.00 0.00 48 1013.6
20260503173540 22 315 3.2 6.4 0.00 0.00 0.00 48 1013.7
20260503172555 21 248 1.6 4.8 0.00 0.00 0.00 47 1014.0
20260503171520 20 315 1.6 4.8 0.00 0.00 0.00 50 1014.0
20260503170520 19 45 1.6 4.8 0.00 0.00 0.00 53 1014.0
20260503150520 12 0 1.6 3.2 0.00 0.00 0.00 79 1015.1
20260503130540 9 0 3.2 4.8 0.00 0.00 0.00 86 1015.0
20260503110530 10 0 1.6 3.2 0.00 0.00 0.00 81 1014.9
20260503081518 13 23 4.8 8.0 0.00 0.00 0.00 71 1014.8
20260503080539 13 23 3.2 4.8 0.00 0.00 0.00 72 1014.8
20260503072616 14 45 1.6 3.2 0.00 0.00 0.00 68 1014.9
20260503071519 15 23 1.6 4.8 0.00 0.00 0.00 68 1014.7
20260503070559 15 68 1.6 3.2 0.00 0.00 0.00 66 1014.6
20260503054519 18 338 1.6 4.8 0.00 0.00 0.00 62 1014.2
20260503053600 18 23 3.2 4.8 0.00 0.00 0.00 60 1014.2
20260503052521 19 0 3.2 6.4 0.00 0.00 0.00 57 1014.1
20260503051539 20 0 3.2 4.8 0.00 0.00 0.00 52 1014.0
20260503050519 20 90 1.6 3.2 0.00 0.00 0.00 48 1014.0
20260503045529 21 0 1.6 3.2 0.00 0.00 0.00 45 1013.9
20260503044534 22 270 1.6 3.2 0.00 0.00 0.00 43 1013.7
20260503043533 22 45 3.2 9.7 0.00 0.00 0.00 37 1013.7
20260503042519 22 45 4.8 11.3 0.00 0.00 0.00 37 1013.6
20260503041520 22 45 4.8 9.7 0.00 0.00 0.00 36 1013.5
20260503040538 23 90 8.0 14.5 0.00 0.00 0.00 37 1013.4
20260503035519 23 90 8.0 12.9 0.00 0.00 0.00 36 1013.3
20260503034520 23 45 6.4 14.5 0.00 0.00 0.00 35 1013.3
20260503033519 24 315 0.0 1.6 0.00 0.00 0.00 35 1013.3
20260503032539 25 23 4.8 9.7 0.00 0.00 0.00 32 1013.0
20260503031540 25 23 8.0 14.5 0.00 0.00 0.00 32 1013.0
20260503030519 25 23 9.7 16.1 0.00 0.00 0.00 31 1012.9
20260503025540 25 23 9.7 19.3 0.00 0.00 0.00 31 1012.9
20260503024600 25 23 11.3 19.3 0.00 0.00 0.00 32 1012.9
20260503023519 25 23 11.3 19.3 0.00 0.00 0.00 32 1012.9
20260503022520 26 23 9.7 17.7 0.00 0.00 0.00 31 1012.8
20260503021541 26 0 11.3 17.7 0.00 0.00 0.00 31 1012.9
20260503020520 26 23 11.3 19.3 0.00 0.00 0.00 30 1012.9
20260503015551 26 23 8.0 17.7 0.00 0.00 0.00 30 1012.9
20260503014540 26 23 9.7 16.1 0.00 0.00 0.00 29 1012.9
20260503013519 26 23 9.7 22.5 0.00 0.00 0.00 30 1012.9
20260503012519 26 23 11.3 19.3 0.00 0.00 0.00 29 1013.0
20260503011520 26 23 9.7 17.7 0.00 0.00 0.00 30 1013.0
20260503010519 27 23 12.9 20.9 0.00 0.00 0.00 29 1013.0
20260503005519 27 23 8.0 14.5 0.00 0.00 0.00 30 1013.0
20260503004519 26 45 11.3 20.9 0.00 0.00 0.00 29 1013.1
20260503003519 27 23 16.1 24.1 0.00 0.00 0.00 29 1013.2
20260503002519 27 23 14.5 29.0 0.00 0.00 0.00 29 1013.3
20260503001539 27 23 16.1 24.1 0.00 0.00 0.00 29 1013.4
20260503000519 27 23 16.1 27.4 0.00 0.00 0.00 29 1013.4
20260502235539 27 23 14.5 24.1 0.00 0.00 0.00 29 1013.5
20260502234518 27 0 12.9 22.5 0.00 0.00 0.00 30 1013.6
20260502233519 27 23 12.9 24.1 0.00 0.00 0.00 30 1013.6
20260502232519 27 23 14.5 22.5 0.00 0.00 0.00 31 1013.9
20260502231519 27 23 12.9 22.5 0.00 0.00 0.00 31 1014.0
20260502230543 27 23 12.9 20.9 0.00 0.00 0.00 32 1014.1
20260502225519 27 45 14.5 27.4 0.00 0.00 0.00 32 1014.5
20260502224519 27 23 14.5 25.7 0.00 0.00 0.00 33 1014.5
20260502223519 27 23 12.9 25.7 0.00 0.00 0.00 34 1014.5
20260502222530 27 23 16.1 29.0 0.00 0.00 0.00 36 1014.6
20260502221540 27 23 14.5 22.5 0.00 0.00 0.00 36 1014.7
20260502220519 27 0 19.3 29.0 0.00 0.00 0.00 36 1014.7
20260502215519 27 0 14.5 25.7 0.00 0.00 0.00 35 1014.8
20260502214519 27 23 17.7 24.1 0.00 0.00 0.00 34 1014.9
20260502213519 27 23 14.5 20.9 0.00 0.00 0.00 35 1015.0
20260502212519 27 23 11.3 20.9 0.00 0.00 0.00 36 1015.0
20260502211519 27 23 12.9 25.7 0.00 0.00 0.00 34 1015.1
20260502210611 26 0 12.9 22.5 0.00 0.00 0.00 35 1015.1
20260502205518 26 23 14.5 22.5 0.00 0.00 0.00 37 1015.2
20260502204520 26 23 12.9 22.5 0.00 0.00 0.00 35 1015.4
20260502203518 26 0 9.7 20.9 0.00 0.00 0.00 37 1015.4
20260502202544 26 338 9.7 16.1 0.00 0.00 0.00 40 1015.5
20260502201519 26 0 11.3 16.1 0.00 0.00 0.00 40 1015.8